Погода в Порт-Пири

Австралия     33°11′08″S   138°00′36″E
темп.,
°C
ветер,
м/с
пор.,
м/с
влажн.,
%
обл.,
%
осадки,
мм/ч
давл.,
гПа
погр.,
м
4 марта, чт
чт401:30+19юв47330 0.0 1019148
04:30+17вюв34420 0.0 101878
07:30+15вюв23460 0.0 101949
10:30+23ссз11260 0.0 1019594
13:30+27юз54190 0.0 10171166
16:30+26юз66270 0.0 1015521
19:30+22ююз610470 0.0 1015350
22:30+18юв48500 0.0 1017247
5 марта, пт
пт501:30+16ююв35720 0.0 1017115
04:30+15ююв34650 0.0 101686
07:30+16в23490 0.0 101745
10:30+23юв123015 0.0 1016535
13:30+28зюз32220 0.0 10151311
16:30+26юз77390 0.0 1012502
19:30+24ююз58520 0.0 1013428
22:30+19ююв49652 0.0 1015356
6 марта, сб
сб601:30+18ююв3460100 0.0 101492
04:30+18юв3458100 0.0 101275
07:30+17вюв234994 0.0 101348
10:30+25св122974 0.0 1013501
13:30+28з4328100 0.0 1012963
16:30+28юз4328100 0.0 1009838
19:30+24ю4542100 0.0 1009130
22:30+23юв4639100 0.0 1011175
7 марта, вс
вс701:30+22вюв2239100 0.0 101040
04:30+20ссв124181 0.0 100923
07:30+21ююз124460 0.0 100931
10:30+25сз123273 0.0 1009365
13:30+26зюз333597 0.0 1009565
16:30+25зюз664298 0.0 1008510
19:30+24ююв464391 0.0 1009341
22:30+20ююв346260 0.0 1011114
8 марта, пн
пн801:30+19ююв466482 0.0 1010221
04:30+18ююв577162 0.0 1010238
07:30+17ююв587481 0.0 1012286
10:30+22юз335288 0.2 1013582
13:30+27ю3236100 0.1 1013993
16:30+27ююз763799 0.1 1010893
19:30+23ююв794659 0.0 1012513
22:30+19ююв596479 0.0 1014444